Showing default

EMISAT, 44078

Orbit data source: Space-Track

EMISAT, 44078 is a payload satellite owned by ISRO (IN) in SSO that was launched on Mon, 01 Apr 2019 UTC via a PSLV-QL launch vehicle from the Sirharikota (SRI). Payload-class satellites include a variety of spacecraft equipped with specific instruments for various scientific and technological missions. These include communications satellites like Starlink; space stations such as the ISS; scientific satellites like the Hubble; Earth observation satellites from companies like Planet Labs, Umbra, and HawkEye 360; GPS; miniature CubeSats for education and research; and military/defense satellites.

Loading next visibility...
Identifier
44078, 2019-018A
Orbit
SSO
Last TLE update
9 hours ago
Origin
Manufacturer
ISRO
Mission
Operational Defense Sigint
Bus & Motor
SSB-2, AOCS
Mass
436 kg wet, ~380 kg dry
Launch date (UTC)
2019-04-01 (6 years ago)
Launch vehicle
PSLV-QL
Launch site
Sirharikota (SRI)
Object type
Payload
Rocket body
Debris
Shape & HBR
Box + 2 Pan, 6 m
Radar Cross Section
4.485 m², Large (>1 m²)

Expand to show TLE details & history

TLE from 9 hours ago
0 EMISAT
1 44078U 19018A   25183.89995826  .00000158  00000-0  58820-4 0  9998
2 44078  98.2857 240.2730 0018120 186.5751 173.5205 14.43731913329662
Epoch: 2025-07-02T21:35Z
TLE epoch observation values (Epoch: 2025-07-02T21:35:56.393Z)
Latitude
-0.00002°
Longitude
-4.8864°
Altitude
761.985 km
Speed
7.467 km/s
True Right ascension
16h 01m 05s
True Declination
0° 00' 00"
Sunlit
Object was in full shadow at epoch
Visualization orbit readout
Latitude
16.99015°
Longitude
178.01801°
Altitude
736.611 km
Speed
7.494 km/s
Apparent Right ascension
05h 08m 05s
Apparent Declination
-10° 07' 07"
Sunlit
Object is in daylight
Visualization observer readout
Local Sidereal Time
18:25:47
Azimuth
35.378° NE
Elevation
-55.571°
Doppler factor
1
Orbital elements
Apogee altitude
756.206 km
Perigee altitude
730.398 km
Semi-major axis
7,121.439 km
Eccentricity
0.00181
Inclination
98.2857°
RAAN
240.273°
Arg. of periapsis
186.5751°
True anomaly
Unknown
Mean anomaly
173.5205°
Eccentric anomaly
Unknown
Mean motion
3.61153 °/min
Orbital period
99.68 mins
BSTAR
0.00005882
Loading maneuver chart data...
Loading SW <> Apogee altitude chart data...

EMISAT Visibility forecast

Observer location: undefined°, undefined°

Span
Click to sort rows by Start time (UTC) header in descending order
Start Az.
Max El. time (UTC)
Max El. Az.
Max El.
End time (UTC)
End Az.
9 mins2025-07-03 16:28:04.130Z18.787° NNE2025-07-03 16:33:04.130Z139.318° SSE41.883°2025-07-03 16:37:04.130Z184.704° SSW
8 mins2025-07-04 03:40:04.130Z160.543° S2025-07-04 03:44:04.130Z16.544° NNE43.628°2025-07-04 03:48:04.130Z349.573° N
|